Presure
229 224 204 172 160 164 159 172 159 169 194 188 144 175 148 166 173 159 156 182 153 173 154 187 210 210 185 196 162 186 172 117 120 127 195 164 146 174 170 128 259 138 216
212 161 210 141 220 124 124 175 184 163 184 187 200 162 174 157 161 182 159 170 172 159 179 216 205 204 188 193 179 154 162 159 130 99 159 161 147 220 251 204 136 247 238
196 128 120 118 192 139 159 181 193 171 196 185 173 174 190 173 155 187 162 160 168 162 216 202 207 201 191 172 175 132 164 158 144 188 119 158 191 147 139 174 213 241 231
122 121 120 115 120 151 175 156 170 177 162 168 160 182 161 159 163 169 206 168 180 181 213 206 167 159 125 178 163 164 156 140 139 169 133 178 128 152 186 215 241 245 228
118 123 123 127 128 154 129 164 150 152 156 157 166 200 167 148 163 175 151 211 146 193 195 164 154 183 181 153 161 154 190 208 215 157 145 141 146 174 140 171 249 241 190
120 118 134 129 129 129 136 220 195 193 201 153 162 171 170 167 180 164 219 154 189 155 111 167 148 185 145 126 152 156 194 186 180 133 148 175 203 184 177 222 232 248 243
136 178 186 181 134 150 153 157 147 154 157 153 170 155 180 215 154 155 164 199 181 159 186 191 201 147 173 166 155 136 155 160 177 200 197 163 209 158 188 231 224 255 208
160 133 129 179 132 134 148 187 160 204 166 187 180 184 203 221 159 173 190 160 148 190 165 155 221 194 152 168 191 187 148 179 202 223 201 192 147 178 172 210 228 251 213
138 138 140 127 159 167 124 169 150 170 171 183 181 218 170 166 155 163 156 170 176 174 187 167 207 174 171 104 151 153 204 184 186 169 206 171 147 136 183 212 259 249 230
143 167 178 144 129 141 120 176 125 168 215 144 189 221 208 208 190 159 150 204 197 163 191 152 167 163 157 158 180 149 198 152 172 207 177 194 142 207 191 144 241 231 231
133 141 169 140 155 137 140 125 194 170 189 224 211 200 198 151 161 170 173 164 191 181 162 188 149 148 180 174 189 205 170 168 187 214 148 144 136 166 187 221 148 233 234
140 133 153 169 153 140 130 177 152 165 170 170 212 211 211 195 159 148 187 161 148 151 166 158 131 170 133 149 189 150 159 160 214 177 145 135 173 184 221 138 239 228 218
151 177 134 152 140 153 145 140 121 164 180 216 174 179 211 159 193 195 164 191 174 164 171 157 152 185 193 189 197 130 197 186 174 191 235 133 137 219 213 229 247 230 217
150 139 175 139 166 156 130 155 146 189 118 215 227 199 222 152 153 171 160 159 168 171 176 167 170 149 142 192 187 144 186 190 204 216 219 134 144 153 211 235 222 227 233
188 148 140 144 168 137 136 126 129 165 147 185 219 215 181 212 152 171 167 165 156 173 169 160 163 167 196 192 176 167 168 202 211 211 180 168 164 210 206 205 236 229 231
155 134 141 144 198 148 126 134 139 161 227 155 182 183 172 136 162 162 172 171 176 159 185 173 162 171 199 174 167 158 181 210 239 220 194 159 204 207 227 214 231 230 217
199 146 157 252 180 150 139 130 144 169 160 184 141 172 173 166 158 149 173 180 171 184 178 178 152 182 163 205 183 134 179 223 181 166 135 217 207 218 230 220 232 238 224
192 182 145 167 140 134 145 159 163 147 177 175 130 177 169 159 190 175 160 195 175 174 180 189 183 193 141 127 166 164 203 154 196 205 199 221 224 220 229 210 222 229 265
179 157 148 157 140 170 165 159 161 150 156 131 180 162 158 159 198 202 190 209 172 167 168 181 188 151 174 161 156 206 213 207 214 196 145 219 223 215 221 202 227 270 261
187 132 181 141 123 171 164 163 137 135 149 167 185 156 152 187 214 183 177 179 170 170 180 193 175 181 165 166 182 143 166 198 174 219 217 227 232 238 218 211 224 231 260
167 159 168 157 176 151 135 151 179 161 212 182 162 149 172 186 175 168 190 182 170 173 172 184 181 186 163 171 193 211 186 214 223 147 230 235 198 224 237 216 222 263 278
144 174 167 181 178 192 183 152 172 193 127 135 130 144 150 212 181 203 201 192 191 159 171 183 168 165 178 179 121 192 152 212 224 227 224 237 203 231 209 219 219 282 268
171 169 151 175 156 172 154 200 167 156 146 171 202 179 165 183 203 181 159 183 162 182 181 155 159 184 137 190 192 215 141 220 246 223 236 218 198 207 224 218 211 272 247
193 196 171 184 133 155 152 153 209 166 194 145 178 193 156 150 149 148 180 169 184 180 168 160 172 181 147 187 166 210 144 168 225 230 240 201 196 228 223 233 203 255 250
184 188 145 185 149 193 182 154 162 199 159 206 152 145 203 206 153 188 168 175 163 158 169 176 173 172 209 186 162 151 225 234 156 220 204 200 194 231 222 213 233 248 250
176 174 188 169 187 175 166 170 174 172 178 170 151 162 175 164 181 185 180 157 165 166 164 170 170 213 226 184 202 246 232 253 223 201 204 220 224 220 214 211 264 263 246
Wind_Speed
28 35 35 22 15 22 10 23 9 17 21 17 4 13 9 19 24 19 21 33 23 31 28 38 36 38 38 42 39 34 44 15 16 20 48 33 29 59 61 42 38 39 37
25 21 36 18 33 10 8 23 16 7 17 20 21 12 22 15 21 30 21 26 26 26 34 33 37 40 38 40 39 38 41 44 28 23 49 55 48 34 32 38 29 31 32
22 16 11 9 25 8 6 15 24 8 21 18 15 21 21 26 19 28 21 22 26 25 32 35 35 34 37 37 38 28 44 44 37 54 38 62 46 44 37 51 52 37 38
10 9 8 4 7 5 9 6 4 10 3 10 11 17 16 18 21 22 28 23 24 29 32 30 35 36 26 40 43 44 45 39 36 54 26 48 26 61 56 60 54 40 42
9 7 7 6 7 4 7 4 2 3 6 11 16 26 18 18 21 24 21 27 26 26 29 35 37 36 38 41 44 44 45 40 43 55 47 49 53 63 49 53 54 48 54
12 8 6 6 9 10 15 20 19 16 17 12 14 17 19 20 24 21 25 23 26 30 21 35 38 40 40 31 44 50 47 45 53 33 58 57 60 62 66 70 69 51 46
6 3 7 7 7 8 7 7 9 9 12 16 17 17 20 17 22 25 24 29 32 31 32 35 37 39 42 43 47 43 54 57 55 61 61 58 63 58 71 72 74 55 56
5 2 2 11 7 6 13 15 10 15 13 18 21 20 19 14 24 26 25 29 34 32 34 38 36 40 46 47 48 51 55 57 63 66 66 64 58 69 74 79 77 61 59
4 3 3 5 17 14 15 12 14 14 17 19 18 13 20 23 25 25 29 29 31 33 34 41 37 42 46 28 55 58 62 56 62 61 70 62 67 63 77 83 74 64 69
6 13 16 10 13 16 13 14 23 16 14 22 18 16 21 21 25 28 32 28 31 36 34 44 43 46 47 50 49 57 65 61 64 74 69 76 66 74 77 72 81 80 77
9 9 20 10 17 16 23 20 17 17 16 15 17 20 22 27 28 30 33 35 34 36 40 38 48 40 48 51 62 70 53 56 71 74 59 65 61 77 80 89 67 84 84
12 10 15 19 20 19 17 18 28 20 20 21 21 21 23 27 29 33 32 35 40 43 38 40 39 47 51 56 65 56 63 55 79 69 62 64 74 79 88 71 86 90 92
17 21 14 12 9 14 26 28 19 22 20 22 24 26 26 27 31 32 33 37 35 35 37 40 44 56 62 64 70 52 74 75 71 84 85 63 66 90 94 98 86 91 93
20 17 21 16 26 21 15 26 29 23 27 22 25 25 28 35 37 37 40 42 39 40 44 44 47 49 56 66 68 59 76 81 87 87 84 66 76 81 97 98 97 100 98
22 17 17 23 26 15 19 19 24 26 32 25 23 24 29 31 41 37 41 44 45 47 48 48 48 51 69 66 63 63 66 86 89 90 71 79 81 99 99 97 98 99 91
27 23 25 26 18 23 21 24 30 30 22 32 23 23 30 41 39 43 45 46 47 49 57 56 54 58 71 62 59 58 82 90 95 94 91 77 94 100 105 104 106 106 105
24 31 34 21 32 28 25 25 27 33 36 24 39 29 31 37 43 47 47 55 51 57 56 58 53 68 57 79 69 58 86 95 84 67 67 101 101 108 106 109 104 107 105
24 26 28 33 26 26 30 33 39 34 32 33 40 30 37 45 52 47 52 58 55 57 62 70 67 72 55 58 63 69 94 63 98 103 100 105 106 110 108 105 114 107 87
26 29 33 35 32 33 34 34 35 36 37 37 32 41 47 48 48 53 51 52 54 58 57 71 76 59 67 62 63 97 103 103 104 104 70 106 107 107 110 104 110 99 86
27 29 36 34 31 40 38 37 39 37 47 46 36 49 55 48 53 50 51 56 53 59 69 81 67 74 64 66 77 69 68 108 96 106 105 106 105 102 110 112 112 106 87
40 40 40 40 41 42 44 43 47 51 37 53 49 57 52 49 60 53 57 59 56 62 65 78 75 83 61 71 110 108 99 104 107 68 108 106 95 106 98 114 112 91 74
41 43 44 44 45 48 46 43 46 43 37 39 40 56 60 53 64 64 66 69 75 57 67 81 70 67 84 89 58 97 55 109 107 107 108 104 104 100 112 111 111 78 74
47 46 46 51 44 50 46 44 47 46 47 52 52 53 60 62 61 65 57 70 54 75 72 58 60 99 50 109 117 111 55 111 96 105 107 105 105 108 106 110 105 74 76
52 47 53 55 43 42 45 52 46 50 57 53 57 64 60 60 57 57 73 69 84 83 60 64 80 97 55 117 73 120 56 75 103 102 100 105 105 101 102 103 104 78 78
50 50 44 53 42 50 57 55 54 62 47 66 55 55 67 65 60 73 71 75 66 64 83 95 95 93 111 90 89 53 101 103 70 101 105 108 106 97 101 104 102 92 74
49 53 53 57 57 59 54 54 49 55 61 64 59 71 69 67 74 81 80 66 76 77 77 89 91 104 99 114 89 92 98 94 91 102 107 101 99 103 101 105 85 77 74
Wind_Direction
157 162 176 182 188 205 186 218 189 241 245 255 44 273 342 306 302 315 323 304 325 321 326 327 332 335 335 341 335 347 342 306 321 324 346 328 325 338 337 289 307 284 316
161 146 174 119 170 96 88 220 222 222 252 259 259 309 281 311 317 297 311 313 321 323 328 338 340 342 338 342 338 328 332 335 324 296 339 340 355 336 355 348 313 304 300
150 115 115 104 179 102 165 217 235 239 254 255 294 295 295 289 309 305 317 323 325 321 331 334 335 334 342 337 340 339 340 337 335 337 337 340 325 343 320 339 340 342 337
120 123 116 125 84 111 181 107 45 253 303 307 310 291 301 307 304 308 311 321 321 326 327 327 335 332 340 337 341 341 338 335 333 330 310 325 327 339 345 349 350 338 331
150 126 110 85 65 199 31 256 354 317 302 290 277 287 290 316 302 309 324 318 322 332 328 335 337 332 335 337 338 340 337 354 339 333 345 343 335 335 349 340 341 335 334
174 171 75 68 39 25 7 234 246 264 275 303 290 289 293 299 310 321 310 327 329 336 350 328 332 332 335 343 337 340 339 352 341 325 333 342 345 339 330 349 348 333 328
150 200 210 184 22 323 290 258 316 288 283 309 291 319 295 295 325 319 328 321 327 330 329 329 325 334 336 332 336 337 335 330 340 348 345 326 347 328 338 349 346 335 333
243 167 30 229 360 11 327 257 298 259 291 272 280 291 290 289 317 324 326 332 331 325 323 324 342 326 333 333 334 338 336 335 344 347 345 340 347 344 336 345 345 337 333
219 241 304 335 307 271 15 274 320 292 286 282 294 290 314 317 323 328 330 326 324 324 321 330 336 332 334 336 335 332 343 343 343 327 344 330 329 343 337 348 343 339 339
263 274 228 324 5 321 3 279 345 291 272 323 297 281 295 301 308 324 328 326 321 324 327 332 331 329 326 327 331 332 342 324 338 341 342 341 336 341 336 336 346 345 345
247 253 262 316 288 326 328 350 273 295 296 275 290 297 305 328 324 322 324 327 321 327 330 335 327 335 334 336 344 345 329 330 336 340 341 324 333 336 337 346 343 346 344
259 284 273 267 296 323 339 273 306 300 311 316 286 294 295 316 321 321 320 325 323 327 325 322 326 334 336 321 344 321 331 330 340 336 321 335 336 338 345 338 345 347 345
253 262 283 279 308 299 308 316 318 304 312 282 317 321 302 316 328 316 314 333 318 315 322 320 320 340 340 342 343 335 341 341 337 341 345 336 337 343 346 346 344 345 343
254 273 263 292 271 281 316 305 305 293 314 297 276 306 300 313 316 311 311 313 314 320 326 333 335 314 318 340 343 335 342 343 343 340 342 335 332 333 347 346 346 345 342
249 265 274 282 269 289 293 298 301 298 308 308 310 324 316 333 313 310 313 316 319 325 324 326 329 333 341 339 342 337 337 341 342 342 332 336 334 345 345 347 342 344 344
265 269 273 280 272 286 306 304 306 299 283 303 299 302 307 316 310 311 316 317 326 325 337 336 329 334 339 336 333 327 342 341 343 342 341 334 341 342 343 346 342 343 347
248 268 267 240 269 291 306 304 307 291 298 287 309 299 303 301 304 311 323 329 327 334 331 334 323 332 332 337 334 326 340 343 338 328 327 343 343 342 343 344 343 342 345
239 257 277 270 291 296 299 289 294 295 288 290 310 305 303 305 329 314 314 330 324 328 333 338 332 335 317 324 332 335 338 330 343 341 339 343 344 341 340 345 345 344 340
250 267 279 279 292 281 283 289 295 296 299 305 298 299 299 303 324 327 319 323 321 326 325 332 335 326 330 327 329 339 339 342 339 338 323 342 340 341 340 344 340 341 339
232 282 255 273 278 288 295 295 293 301 294 297 292 297 303 313 319 313 316 321 317 324 331 332 329 331 326 325 332 328 331 341 335 337 338 340 338 339 340 342 340 342 337
272 277 281 284 281 288 289 288 291 291 310 285 295 303 303 312 303 318 322 321 320 326 327 328 327 333 322 329 337 335 341 333 335 325 340 337 336 338 338 340 339 339 338
270 274 279 273 285 277 283 285 300 293 306 304 307 304 307 323 311 320 321 322 324 319 325 328 324 324 332 335 317 335 325 334 335 337 338 335 339 337 340 337 339 339 339
270 274 278 278 283 282 280 293 294 298 302 302 305 296 294 311 321 314 316 321 317 322 325 316 316 332 313 330 332 328 320 333 332 336 333 335 337 337 336 336 340 341 340
265 265 277 276 278 282 282 286 298 293 303 296 308 309 299 307 310 309 319 321 323 326 321 319 330 330 320 329 334 326 320 326 333 332 329 335 337 334 335 337 342 336 339
264 265 274 274 283 279 284 289 293 295 295 298 299 300 310 311 311 313 316 321 320 319 327 328 328 330 326 331 321 326 325 329 330 331 331 333 336 333 333 335 337 335 337
262 269 264 277 271 280 286 292 289 290 297 307 297 303 304 307 313 312 314 317 320 323 324 324 326 318 315 320 318 320 323 326 327 329 329 329 328 330 333 336 335 335 336